Погода в Бердышеве

Россия / Пермский край     57°19′55″N   54°27′11″E
темп.,
°C
ветер,
м/с
пор.,
м/с
влажн.,
%
обл.,
%
осадки,
мм/ч
давл.,
гПа
погр.,
м
20 июня, вс
вс2023:00+20з6156544 0.0 1013542
02:00+20зсз614745 0.0 1013506
05:00+17сз513881 0.0 1015499
08:00+19ссз510724 0.0 1017824
11:00+19ссз69430 0.0 10191213
14:00+21ссз69350 0.0 10201647
17:00+22с58370 0.0 10201882
20:00+20ссз37550 0.0 1021342
21 июня, пн
пн2123:00+15с22592 0.0 102214
02:00+12всв006399 0.0 102311
05:00+12юв11653 0.0 102310
08:00+16ю225659 0.0 1024222
11:00+18ююз3459100 0.0 1023363
14:00+24юз465155 0.0 10211018
17:00+23юз58585 0.0 1020647
20:00+23ю1281100 0.7 101866
22 июня, вт
вт2223:00+19юз369585 1.9 1019111
02:00+18з26925 0.1 101895
05:00+18з229375 0.3 101830
08:00+22зсз248443 0.0 1018204
11:00+27сз46547 0.0 1018769
14:00+30сз47412 0.0 10181973
17:00+29зсз465093 0.0 10171568
20:00+23з26697 0.3 1017128
23 июня, ср
ср2323:00+21ссз36741 0.3 101785
02:00+19зсз23892 0.6 101852
05:00+18зсз119131 0.6 101713
08:00+21сз35815 0.0 1017281
11:00+27ссз46592 0.0 1017912
14:00+29ссз365010 0.0 10161790
17:00+25ссв5776100 3.5 1016520
20:00+20ююз3594100 21.6 1016127
24 июня, чт
чт2423:00+18юв2598100 23.1 1018147
02:00+16в119794 0.0 101818
05:00+15вюв24965 0.0 101991
08:00+18вюв47875 0.0 1020327
11:00+21юв455486 0.0 1020673
14:00+23ююв3450100 0.0 1020952
17:00+24ююв33481 0.0 10211068
20:00+22ююв24650 0.0 1020151